Flag for U.S.A. Weather past 2 weeks in Bismarck, North Dakota, U.S.A.

Now
62 °F

Passing clouds.


Feels Like: 62 °F
Forecast: 63 / 80 °F
Wind: 5 mph from Southwest

Location: Bismarck Municipal Airport

Current Time: Jul 22, 2014 at 4:41:53 AM

Latest Report: Jul 22, 2014 at 3:58 AM


Visibility: 10 mi

Pressure: 30.07 "Hg

Humidity: 93%

Dew point: 60 °F

Location of BismarckLocation

Historic Weather in Bismarck — Graph

°F

Bismarck temperature yesterday

Maximum temperature yesterday: 88 °F (at 12:52 PM)
Minimum temperature yesterday: 65 °F (at 11:52 PM)
Average temperature yesterday: 74 °F

Past Weeks' High & Low Weather Summary

 TemperatureHumidityPressure
High94 °F (Jul 20, 4:52 PM)100% (Jul 19, 6:52 AM)30.29 "Hg (Jul 19, 6:52 AM)
Low47 °F (Jul 15, 1:52 AM)28% (Jul 13, 2:52 PM)29.62 "Hg (Jul 20, 5:52 AM)
Average69 °F64%29.94 "Hg
* Reported Jul 7 2:52 AM — Jul 22 2:52 AM, Bismarck, Weather by CustomWeather, © 2014

Note: Actual official high and low records may vary slightly from our data, if they occured in-between our weather recording intervals... More about our weather records

Advertising

Bismarck weather history for previous 24 hours

 ConditionsComfort  
Time TempWeatherWind HumidityBarometerVisibility
2:52 AM
Jul 22
62 °FClear.7 mph96%30.02 "Hg10 mi
1:52 AM64 °FClear.6 mph94%29.97 "Hg10 mi
12:52 AM64 °FClear.8 mph94%29.96 "Hg10 mi
11:52 PM
Jul 21
65 °FClear.8 mph94%29.93 "Hg10 mi
10:52 PM66 °FClear.10 mph87%29.91 "Hg10 mi
9:52 PM67 °FSunny.6 mph87%29.86 "Hg10 mi
8:52 PM67 °FSunny.15 mph87%29.84 "Hg10 mi
7:52 PM67 °FLight rain. Passing clouds.7 mph87%29.78 "Hg10 mi
6:52 PM69 °FThundershowers. Partly sunny.12 mph84%29.76 "Hg10 mi
5:52 PM69 °FThunderstorms. Fog.24 mph90%29.74 "Hg5 mi
4:52 PM84 °FScattered clouds.9 mph74%29.68 "Hg9 mi
3:52 PM87 °FPartly sunny.6 mph67%29.71 "Hg10 mi
2:52 PM88 °FPartly sunny.7 mph63%29.70 "Hg10 mi
1:52 PM86 °FSunny.10 mph67%29.70 "Hg10 mi
12:52 PM88 °FSunny.12 mph57%29.73 "Hg10 mi
11:52 AM87 °FSunny.13 mph59%29.74 "Hg10 mi
10:52 AM85 °FSunny.12 mph65%29.73 "Hg10 mi
9:52 AM80 °FSunny.10 mph74%29.76 "Hg9 mi
8:52 AM76 °FSunny.9 mph80%29.75 "Hg9 mi
7:52 AM73 °FSunny.7 mph76%29.75 "Hg10 mi
6:52 AM71 °FClear.6 mph81%29.72 "Hg10 mi
5:52 AM67 °FClear.8 mph90%29.70 "Hg10 mi
4:52 AM67 °FClear.6 mph85%29.69 "Hg10 mi
Weather by CustomWeather, © 2014

See weather overviewHow to use our weather pages